Wind_Speed
11 12 12 12 12 12 12 12 12 11 11 12 12 12 12 12 12 11 11 12 12 13 13 14 14 15 15 14 14 14 14 14 14 14 14 14 14 14 14 14 14 14 13
12 12 12 13 12 12 12 12 13 12 12 12 11 12 12 11 12 11 11 12 12 12 13 13 14 14 15 15 15 16 15 15 15 14 14 13 13 14 14 14 14 13 13
12 12 12 12 12 12 12 13 12 12 12 12 11 11 12 12 12 12 12 12 12 12 12 13 13 14 15 15 15 15 15 15 15 14 14 13 13 13 13 13 13 12 12
11 11 11 11 11 11 11 12 12 12 11 11 11 11 12 12 13 13 13 13 14 13 13 14 14 14 15 15 16 15 15 15 14 14 14 14 13 13 13 13 13 12 12
11 11 11 11 11 11 11 11 10 11 11 10 11 11 12 12 13 14 14 14 14 14 14 14 14 14 14 15 15 15 14 14 14 14 14 14 13 13 13 13 13 13 13
11 11 11 11 11 11 10 10 10 10 10 11 11 12 12 13 14 14 14 14 14 14 14 14 14 14 15 14 14 14 13 13 13 13 14 14 14 14 13 13 13 13 13
12 11 11 11 11 11 11 11 11 11 11 11 11 12 12 13 14 14 14 14 14 14 14 14 14 14 14 14 14 13 14 14 13 14 14 14 15 15 14 14 14 14 14
13 12 12 12 12 12 12 13 13 12 13 13 12 13 13 13 14 14 14 14 14 14 14 14 14 14 14 15 15 14 15 15 15 15 15 15 14 15 15 15 15 15 14
13 13 13 13 13 13 13 13 13 13 14 14 14 14 15 15 15 15 15 15 15 15 16 15 15 15 14 15 15 15 15 15 16 16 16 16 16 15 15 15 15 15 15
13 14 14 15 15 15 15 14 15 15 15 16 16 16 16 16 16 16 17 17 16 16 16 16 16 15 15 16 16 16 17 17 17 17 18 18 18 18 17 17 16 16 16
15 15 15 16 16 16 16 16 17 17 17 17 17 17 18 18 18 17 18 18 18 18 17 17 17 17 17 17 17 17 17 18 18 18 18 19 19 19 19 19 19 18 17
15 16 16 17 17 17 17 17 18 18 18 19 19 20 19 19 19 19 19 19 19 19 19 18 18 18 18 18 18 18 19 19 19 19 19 19 19 19 19 20 20 19 19
15 16 16 17 17 18 18 18 18 19 19 20 20 21 21 21 20 20 20 20 20 20 20 20 20 20 20 20 20 21 20 20 20 20 20 21 21 20 20 20 20 20 20
18 17 17 18 18 19 19 19 19 19 20 20 20 21 22 22 22 22 22 22 22 21 21 21 22 21 21 21 22 22 22 22 22 22 22 23 23 23 23 22 22 22 21
19 18 18 18 19 19 20 20 20 20 20 20 21 22 22 23 24 24 23 23 23 22 22 22 22 22 22 22 22 23 23 23 23 23 24 24 25 25 24 24 24 23 23
20 20 19 19 19 20 20 20 20 21 21 21 22 22 23 23 24 25 25 25 24 24 23 23 23 24 24 24 23 23 24 24 24 25 25 25 25 25 25 25 25 24 24
20 21 21 20 20 20 21 21 22 22 22 22 23 24 24 25 25 26 26 26 26 26 25 24 24 24 25 24 25 24 24 24 25 25 25 25 25 25 25 25 25 25 25
21 22 22 22 21 21 22 23 23 23 23 24 24 24 25 25 25 26 27 27 27 27 27 26 25 25 25 25 25 25 25 25 25 25 25 25 25 25 25 25 25 25 26
22 23 23 23 23 23 23 23 24 24 24 25 24 24 25 26 26 26 27 27 27 27 27 27 26 26 26 25 25 26 26 25 25 25 25 25 25 25 25 25 25 25 26
24 24 24 24 24 24 24 25 25 25 26 26 26 26 26 26 26 27 27 28 28 27 28 28 27 27 27 27 27 26 27 26 25 25 25 25 25 25 25 25 25 26 25
24 24 24 24 25 25 25 26 26 26 27 27 27 27 27 28 27 27 27 28 28 28 28 28 28 27 27 28 28 27 27 27 26 25 24 25 25 25 25 26 25 26 26
26 25 25 25 25 25 26 26 26 26 27 27 27 27 28 28 28 28 28 28 29 29 29 29 29 28 28 28 28 28 28 27 27 27 26 26 27 27 26 26 26 26 26
27 26 26 26 26 26 26 26 26 26 26 27 28 28 28 29 29 29 29 29 29 29 30 30 30 29 29 29 29 29 29 28 28 28 28 27 27 27 27 26 26 26 27
27 27 26 26 26 26 26 26 26 26 26 27 28 28 29 29 29 29 30 30 30 30 30 29 30 30 30 30 30 30 29 29 29 29 29 29 28 28 28 27 27 28 28
28 28 27 26 27 27 27 27 27 27 27 26 26 26 27 28 28 29 29 29 29 29 30 30 30 30 31 31 30 30 30 30 30 30 30 29 29 29 28 28 28 28 28
27 27 27 27 27 27 27 27 28 27 26 25 25 26 26 26 27 28 28 28 29 29 30 31 31 31 31 31 31 31 30 30 29 29 29 30 29 29 29 29 29 29 28
Wind_Direction
284 284 285 285 283 279 278 276 272 275 274 268 265 263 264 262 261 261 262 263 262 262 260 259 258 256 255 254 255 257 259 258 259 260 262 263 262 261 262 264 264 266 268
286 286 286 285 284 280 277 273 271 274 271 270 266 262 261 260 261 263 261 260 261 260 260 261 260 258 257 255 257 259 258 258 260 261 262 263 262 263 264 266 267 266 265
289 286 285 285 284 280 276 272 272 272 271 271 268 263 260 258 259 260 258 259 260 259 259 261 261 261 260 258 259 258 258 259 260 260 259 259 261 264 263 264 264 264 265
290 286 284 284 284 282 280 275 275 273 271 270 267 265 264 263 263 262 261 260 260 261 261 261 262 262 261 261 261 260 259 257 257 257 258 259 261 261 260 260 260 261 263
289 287 286 285 285 283 282 276 275 269 267 266 264 265 267 266 267 268 267 264 263 262 261 262 262 261 262 262 262 260 260 259 256 254 255 257 259 259 258 260 260 261 263
288 288 286 284 286 285 282 277 275 272 269 266 265 266 268 269 270 270 270 267 265 264 262 261 261 260 261 263 262 259 260 259 256 255 256 256 258 258 258 260 261 260 261
284 285 285 285 285 284 281 278 277 275 271 267 267 268 270 271 271 271 271 270 269 268 262 262 260 262 262 260 259 258 259 259 258 256 257 258 259 258 256 258 260 262 263
282 282 284 285 285 283 279 276 277 275 272 268 268 269 270 271 272 271 270 270 270 269 267 268 267 267 263 261 260 257 257 259 259 258 258 257 258 257 257 258 261 262 262
282 282 285 284 284 284 280 277 276 276 274 270 268 268 268 269 270 271 269 267 267 270 270 271 270 270 268 267 264 263 262 261 260 259 259 257 258 259 257 259 260 259 259
285 284 283 283 283 282 282 279 276 276 277 274 271 269 269 270 270 269 268 266 267 269 270 269 269 268 268 268 267 266 266 263 261 259 258 258 258 258 256 258 260 261 259
285 283 283 283 282 281 281 280 277 276 276 274 272 271 270 270 270 268 265 265 265 267 268 267 266 267 265 265 267 267 266 265 263 260 258 257 258 258 259 259 260 259 258
285 282 283 285 284 281 280 278 277 275 275 274 272 270 269 270 269 267 265 264 264 265 266 266 264 264 264 264 265 266 266 266 265 264 262 258 258 260 260 259 259 259 260
290 286 284 284 283 282 280 279 278 276 276 275 273 270 268 268 268 266 265 264 264 264 264 266 266 265 265 265 265 266 266 266 266 266 264 261 260 261 262 261 260 260 260
289 289 285 284 283 281 280 280 280 277 275 275 273 271 269 268 267 266 265 264 264 264 264 266 267 267 267 267 267 266 267 266 266 266 264 262 261 261 262 261 260 260 260
288 289 288 287 285 283 282 282 280 277 275 275 274 273 271 269 267 266 266 265 265 264 265 265 266 268 269 270 270 270 269 268 267 267 266 264 263 261 261 260 260 259 258
286 287 288 288 288 286 284 284 282 278 276 275 274 274 273 270 268 267 266 265 265 264 264 265 266 266 268 269 269 271 270 269 268 268 267 265 264 263 261 260 257 256 255
286 285 286 287 287 286 284 282 282 279 277 276 275 274 273 271 268 267 266 265 265 265 264 264 266 267 268 268 268 270 270 270 270 269 268 266 265 263 262 260 257 255 254
285 284 285 286 286 285 285 283 282 281 278 277 276 275 274 273 271 269 267 265 265 265 264 264 265 266 267 267 266 267 269 271 271 270 269 267 265 263 259 258 258 255 256
284 284 284 283 284 285 286 286 282 280 280 279 277 275 275 273 271 270 268 267 265 264 264 264 264 265 266 265 266 267 269 270 270 269 267 266 263 262 260 258 257 257 255
284 284 284 284 283 283 285 285 284 281 280 279 277 276 276 275 273 271 269 267 266 265 263 263 263 264 265 265 266 268 269 269 268 267 266 264 262 261 261 259 257 257 257
283 284 283 283 284 284 284 284 283 282 279 278 277 276 276 274 273 272 269 268 267 266 264 263 263 264 264 265 266 267 267 267 266 265 265 264 263 262 261 261 260 257 258
282 283 282 282 283 284 285 285 284 282 280 278 277 276 276 274 274 272 270 268 267 267 266 265 265 263 264 264 265 265 265 264 264 263 263 264 264 262 263 261 260 258 258
281 281 281 281 282 283 284 284 286 284 282 279 277 276 275 274 272 270 270 268 267 267 266 265 264 263 264 264 265 265 263 262 263 264 264 264 263 263 262 262 261 259 259
281 280 279 279 281 283 284 285 288 285 283 282 279 278 276 275 273 270 269 268 267 267 266 265 265 263 263 264 265 264 263 262 263 264 264 263 262 261 260 260 260 260 259
279 279 279 281 282 283 285 286 286 285 283 283 281 279 277 275 273 272 270 268 267 267 266 266 265 264 264 264 265 264 264 262 263 263 262 262 260 260 259 259 260 260 258
278 278 279 280 282 283 284 286 284 284 284 282 280 279 279 277 275 274 272 269 268 267 266 265 265 264 263 263 263 264 265 264 263 262 261 262 261 259 259 260 261 259 255
Height
5848 5847 5846 5845 5845 5844 5843 5843 5842 5842 5842 5842 5842 5842 5842 5842 5842 5842 5843 5843 5843 5843 5843 5843 5844 5844 5845 5845 5846 5846 5846 5846 5847 5847 5847 5847 5847 5847 5847 5847 5847 5846 5846
5844 5843 5842 5842 5841 5840 5840 5839 5839 5839 5839 5839 5839 5839 5839 5839 5839 5840 5840 5840 5839 5839 5840 5840 5840 5841 5841 5842 5842 5842 5843 5843 5843 5843 5843 5844 5844 5844 5844 5844 5844 5843 5843
5841 5840 5839 5838 5838 5837 5837 5836 5836 5836 5835 5835 5835 5835 5836 5836 5836 5836 5836 5836 5836 5836 5836 5837 5837 5837 5838 5838 5838 5838 5839 5839 5839 5840 5840 5840 5841 5841 5841 5841 5841 5841 5841
5837 5836 5836 5835 5835 5834 5834 5834 5833 5833 5832 5832 5832 5832 5833 5833 5833 5833 5833 5833 5833 5833 5833 5833 5834 5834 5834 5834 5834 5835 5835 5835 5836 5836 5836 5837 5837 5837 5838 5838 5838 5838 5838
5834 5834 5833 5832 5832 5831 5831 5830 5830 5830 5830 5829 5829 5829 5830 5830 5830 5830 5830 5830 5830 5830 5830 5830 5830 5830 5830 5830 5831 5831 5831 5831 5832 5832 5833 5833 5834 5834 5834 5834 5835 5835 5835
5831 5831 5830 5830 5829 5828 5828 5827 5827 5827 5827 5826 5826 5826 5826 5826 5826 5826 5826 5826 5826 5826 5826 5827 5827 5826 5826 5827 5827 5827 5827 5828 5828 5828 5829 5829 5830 5830 5831 5831 5831 5831 5832
5828 5828 5827 5827 5826 5825 5825 5824 5824 5824 5823 5823 5823 5823 5823 5823 5823 5823 5823 5823 5823 5823 5823 5823 5823 5823 5823 5823 5823 5823 5824 5824 5824 5825 5825 5826 5826 5827 5827 5827 5828 5828 5828
5825 5824 5824 5823 5823 5822 5822 5821 5821 5820 5820 5820 5820 5820 5820 5820 5819 5819 5819 5819 5819 5819 5819 5819 5819 5819 5819 5819 5820 5820 5820 5821 5821 5821 5821 5822 5822 5823 5823 5824 5824 5824 5824
5822 5821 5820 5820 5819 5819 5818 5817 5817 5817 5816 5816 5816 5816 5816 5816 5816 5816 5816 5816 5816 5816 5815 5815 5815 5815 5815 5815 5815 5816 5816 5816 5817 5817 5817 5817 5818 5818 5819 5820 5820 5820 5820
5818 5817 5816 5816 5815 5814 5814 5813 5813 5813 5812 5812 5812 5812 5812 5812 5812 5812 5812 5812 5812 5811 5811 5811 5812 5811 5811 5811 5811 5812 5812 5812 5812 5812 5813 5813 5814 5814 5815 5815 5816 5816 5816
5814 5813 5812 5811 5811 5810 5809 5808 5808 5808 5807 5807 5807 5807 5807 5807 5807 5807 5807 5807 5807 5807 5807 5807 5807 5807 5807 5807 5807 5807 5807 5807 5807 5808 5808 5808 5809 5809 5810 5810 5811 5811 5812
5810 5809 5808 5807 5806 5805 5804 5803 5803 5802 5802 5802 5802 5801 5802 5802 5802 5802 5802 5802 5802 5802 5802 5802 5802 5802 5802 5802 5802 5802 5802 5802 5802 5802 5802 5803 5804 5804 5804 5805 5805 5806 5807
5806 5804 5803 5802 5801 5800 5799 5798 5798 5797 5796 5796 5796 5796 5796 5796 5796 5796 5797 5797 5797 5797 5797 5797 5797 5797 5797 5797 5797 5797 5797 5797 5797 5797 5797 5797 5798 5798 5799 5799 5800 5801 5801
5801 5800 5799 5798 5796 5795 5794 5793 5792 5791 5790 5790 5790 5789 5789 5789 5790 5790 5790 5791 5791 5792 5792 5792 5791 5791 5791 5791 5791 5791 5791 5791 5790 5791 5791 5791 5791 5792 5792 5793 5794 5795 5795
5796 5795 5794 5792 5791 5790 5788 5787 5786 5785 5784 5784 5783 5783 5783 5783 5783 5783 5783 5784 5785 5785 5786 5786 5785 5785 5785 5785 5785 5784 5784 5784 5784 5784 5784 5784 5784 5785 5785 5786 5787 5788 5789
5791 5790 5788 5787 5785 5784 5783 5781 5780 5779 5778 5777 5777 5776 5776 5776 5776 5776 5776 5777 5777 5778 5779 5779 5779 5779 5778 5778 5778 5778 5778 5777 5777 5777 5776 5776 5776 5777 5778 5778 5779 5780 5782
5785 5784 5783 5781 5779 5778 5776 5775 5774 5773 5771 5771 5770 5770 5769 5769 5769 5769 5769 5769 5770 5770 5771 5772 5772 5771 5771 5771 5771 5771 5770 5770 5770 5769 5769 5769 5769 5769 5770 5771 5772 5773 5774
5779 5778 5776 5775 5773 5772 5770 5768 5767 5766 5765 5764 5763 5762 5762 5761 5761 5760 5761 5761 5762 5762 5763 5764 5764 5764 5764 5764 5763 5764 5763 5763 5762 5762 5761 5761 5762 5762 5763 5764 5765 5766 5767
5773 5771 5769 5768 5766 5765 5763 5761 5760 5758 5757 5756 5755 5755 5754 5753 5753 5753 5753 5753 5753 5754 5754 5755 5756 5756 5756 5756 5756 5756 5756 5755 5755 5754 5754 5754 5754 5755 5756 5757 5758 5759 5760
5766 5764 5762 5760 5759 5757 5756 5754 5752 5751 5749 5748 5748 5747 5746 5745 5745 5745 5745 5745 5745 5745 5746 5746 5747 5748 5748 5748 5748 5748 5748 5747 5747 5747 5747 5747 5747 5748 5748 5749 5750 5752 5753
5758 5756 5755 5753 5751 5749 5748 5746 5744 5742 5741 5740 5739 5738 5738 5737 5737 5736 5736 5736 5737 5737 5737 5738 5739 5739 5740 5740 5740 5740 5740 5739 5740 5740 5740 5740 5740 5741 5741 5742 5742 5744 5745
5751 5749 5747 5745 5744 5742 5740 5737 5735 5734 5733 5732 5731 5730 5729 5729 5728 5728 5728 5728 5728 5728 5729 5729 5729 5730 5731 5731 5731 5731 5731 5732 5732 5733 5733 5733 5733 5733 5734 5735 5735 5736 5737
5743 5741 5739 5738 5736 5734 5732 5730 5727 5725 5724 5723 5722 5721 5720 5720 5719 5719 5719 5719 5719 5719 5720 5720 5720 5721 5722 5722 5722 5722 5722 5723 5724 5724 5724 5725 5725 5726 5726 5727 5728 5729 5729
5735 5733 5732 5730 5728 5726 5724 5722 5719 5717 5715 5714 5713 5712 5711 5710 5710 5709 5709 5709 5709 5710 5710 5710 5711 5712 5712 5712 5713 5713 5713 5714 5715 5715 5716 5717 5717 5718 5718 5719 5720 5720 5721
5727 5725 5724 5722 5720 5718 5716 5714 5711 5709 5707 5706 5704 5703 5702 5701 5701 5700 5700 5700 5700 5700 5700 5701 5701 5702 5703 5703 5703 5704 5704 5705 5706 5707 5707 5708 5708 5709 5710 5711 5711 5712 5713
5719 5717 5716 5714 5713 5711 5708 5706 5703 5701 5699 5698 5696 5695 5694 5693 5692 5691 5690 5690 5690 5691 5691 5691 5692 5692 5693 5694 5694 5695 5695 5696 5697 5698 5698 5699 5700 5700 5702 5703 5703 5703 5704